Regional Weather Roundup
Issued by NWS Cleveland, OH

Home | Current Version | Previous Version | Graphics & Text | Print | Product List | Glossary On
Versions: 1 2 3 4 5 6 7 8 9 10 11 12 13 14 15 16 17 18 19 20 21 22 23 24 25 26 27 28 29 30 31 32 33 34 35 36 37 38 39 40 41 42 43 44 45 46 47 48 49 50
000
ASUS41 KCLE 260200
RWRCLE
OHIO REGIONAL WEATHER ROUNDUP
NATIONAL WEATHER SERVICE WILMINGTON, OH
900 PM EST SUN JAN 25 2015

NOTE: "FAIR" INDICATES FEW OR NO CLOUDS BELOW 12,000 FEET WITH NO
SIGNIFICANT WEATHER AND/OR OBSTRUCTIONS TO VISIBILITY.

OHZ001>008-015>018-024>027-034-035-043-044-260300-
   NORTHWEST OHIO

CITY           SKY/WX    TMP DP  RH WIND       PRES   REMARKS
DEFIANCE       LGT SNOW  19  14  81 NE16G23   29.91S WCI   4
FINDLAY        LGT SNOW  21  16  81 NE17      29.86R WCI   7
TOLEDO EXPRESS FLURRIES  19  11  70 NE13G24   29.92S WCI   6
TOLEDO EXEC    CLOUDY    19   9  65 NE13G22   29.94S WCI   6
LIMA           SNOW      22  17  81 NE16      29.83S VSB 1/2 WCI   8
$$

OHZ009>014-019>023-028>033-038-089-260300-
   NORTHEAST OHIO

CITY           SKY/WX    TMP DP  RH WIND       PRES   REMARKS
CLE-HOPKINS    LGT SNOW  20  15  81 NE18      29.91F BLWGSNOWWCI   5
CLE-LAKEFRONT  FLURRIES  21  14  74 NE15      29.91S WCI   8
CUY CO. ARPT   CLOUDY    21  16  79 E17       29.90S WCI   7
LORAIN-ELYRIA  LGT SNOW  19  16  88 NE18G28   29.89F FOG     WCI   4
ASHTABULA      CLOUDY    19  11  70 NE8       29.91S WCI   9
AKRON-CANTON   LGT SNOW  23  19  85 NE17      29.81S VSB 1   WCI   9
WOOSTER        LGT SNOW  21  19  93 NE13      29.82S FOG     WCI   9
MANSFIELD      LGT SNOW  20  18  92 N14       29.81R VSB 3/4 WCI   7
YOUNGSTOWN     LGT SNOW  20  16  84 N12       29.85R FOG     WCI   8
$$

OHZ042-051>053-060>062-070>072-077>081-260300-
  SOUTHWEST OHIO

CITY           SKY/WX    TMP DP  RH WIND       PRES   REMARKS
CINC-COVINGTON LGT RAIN  39  37  92 NE6       29.68S FOG
CINC-LUNKEN    LGT RAIN  38  38 100 NE6       29.71F FOG
HAMILTON       LGT RAIN  36  35  96 N9        29.73S FOG
DAYTON         LGT SNOW  26  23  88 NE15      29.77R FOG     WCI  14
WRIGHT-PAT AFB LGT SNOW  27  25  92 NE15      29.76R FOG     WCI  16
DAYTON GENERAL LGT SNOW  33  32  96 NE10      29.71S VSB 1   WCI  25
WILMINGTON     LGT RAIN  35  33  92 N7        29.71S FOG     WCI  29
$$

OHZ036-037-039>041-045>050-054>059-063>069-073>076-082>088-260300-
  CENTRAL AND SOUTHEAST OHIO

CITY           SKY/WX    TMP DP  RH WIND       PRES   REMARKS
COLUMBUS       SNOW      32  30  92 NE8       29.76R VSB 1/2 WCI  25
OSU AIRPORT    LGT SNOW  31  29  92 NE10      29.76S VSB 1   WCI  22
BOLTON FIELD   NOT AVBL
RICKENBACK AFB NOT AVBL
NEWARK         LGT SNOW  33  31  92 NE5       29.76S VSB 1   WCI  29
MARION         LGT SNOW  22  18  85 NE17      29.81S VSB 3/4 WCI   8
LANCASTER      LGT SNOW  34  32  92 NE5       29.75S FOG     WCI  30
ZANESVILLE     LGT SNOW  32  30  92 NE5       29.76S VSB 3/4 WCI  27
NEW PHILLY     LGT SNOW  30  27  88 N5        29.81S VSB 3/4 WCI  25
$$



USA.gov is the U.S. government's official web portal to all federal, state and local government web resources and services.